Weather in Novorossiyskiy

Russia / Altai Krai     51°50′27″N   81°22′48″E
temp.,
°C
wind,
m/s
gust,
m/s
humid.,
%
clouds,
%
prec.,
mm/h
press.,
hPa
HPBL,
m
8 march, mon
mon801:00−7s3489100 0.0 102150
04:00−8s348591 0.0 101954
07:00−8ssw4118395 0.0 1017216
10:00−4ssw8187792 0.0 1015470
13:00−1ssw10187696 0.0 1013683
16:00+1sw101781100 0.0 1013832
19:00+1ssw91783100 0.0 1013639
22:00+1sw91598100 0.9 1016701
9 march, tue
tue901:00−5wnw61191100 2.0 1022426
04:00−13w349449 0.0 102753
07:00−16sw349625 0.0 103027
10:00−14ssw47946 0.0 1030191
13:00−9ssw47884 0.0 1029302
16:00−7ssw46861 0.0 1027338
19:00−9s23896 0.0 102521
22:00−11s22900 0.0 102421
10 march, wed
wed1001:00−11sw22950 0.0 102221
04:00−6sw389673 0.0 1021240
07:00−9sw349261 0.0 102043
10:00−6ssw249455 0.0 1019127
13:000ssw5109046 0.0 1016503
16:00+1s4139367 0.0 1013616
19:00+1s5158283 0.0 1010526
22:00+2ssw92073100 0.0 1009560
11 march, thu
thu1101:00+1ssw101898100 0.5 1008713
04:00+2ssw91797100 0.2 1008536
07:00−1w71191100 0.3 1012592
10:00−6sw4892100 0.0 1015373
13:00−5sw5890100 0.0 1018440
16:00−3sw61086100 0.0 1020899
19:00−5ssw4988100 0.1 1021232
22:00−5s7168633 0.0 1021420
12 march, fri
fri1201:00−4ssw9197942 0.0 1019669
04:00−3ssw91680100 0.3 1020730
07:00−4sw71296100 1.0 1020577
10:00−5wsw6995100 2.1 1021763
13:00−5w5791100 3.0 1021649
16:00−6wsw5984100 0.3 1021890
19:00−7w2483100 0.3 1021155
22:00−9nw2286100 0.0 102146